Time,TemperatureF,DewpointF,PressureIn,WindDirection,WindDirectionDegrees,WindSpeedMPH,WindSpeedGustMPH,Humidity,HourlyPrecipIn,Conditions,Clouds,dailyrainin,SoftwareType,DateUTC
2013-07-21 00:13:00,65.2,62.0,29.77,SSW,206,0.0,-999.0,88,-99.99,,,0.00,weatherlink.com 1.10,2013-07-21 07:13:00,
2013-07-21 00:28:00,65.2,62.0,29.77,SSW,207,4.0,-999.0,88,-99.99,,,0.00,weatherlink.com 1.10,2013-07-21 07:28:00,
2013-07-21 00:43:00,65.1,62.0,29.77,SSW,196,0.0,-999.0,89,-99.99,,,0.00,weatherlink.com 1.10,2013-07-21 07:43:00,
2013-07-21 00:58:00,65.1,62.0,29.77,SSW,202,1.0,-999.0,88,-99.99,,,0.00,weatherlink.com 1.10,2013-07-21 07:58:00,
2013-07-21 01:13:00,65.0,62.0,29.77,SSW,200,2.0,-999.0,89,-99.99,,,0.00,weatherlink.com 1.10,2013-07-21 08:13:00,
2013-07-21 01:28:00,65.0,62.0,29.77,South,183,2.0,-999.0,89,-99.99,,,0.00,weatherlink.com 1.10,2013-07-21 08:28:00,
2013-07-21 01:43:00,65.0,62.0,29.76,SW,214,2.0,-999.0,89,-99.99,,,0.00,weatherlink.com 1.10,2013-07-21 08:43:00,
2013-07-21 01:58:00,65.1,62.0,29.77,SSW,204,3.0,-999.0,89,-99.99,,,0.00,weatherlink.com 1.10,2013-07-21 08:58:00,
2013-07-21 02:13:00,65.1,62.0,29.77,SW,221,0.0,-999.0,89,-99.99,,,0.00,weatherlink.com 1.10,2013-07-21 09:13:00,
2013-07-21 02:28:00,65.0,62.0,29.77,SW,221,0.0,-999.0,89,-99.99,,,0.00,weatherlink.com 1.10,2013-07-21 09:28:00,
2013-07-21 02:43:00,65.0,62.0,29.76,SW,221,0.0,-999.0,89,-99.99,,,0.00,weatherlink.com 1.10,2013-07-21 09:43:00,
2013-07-21 02:58:00,65.0,62.0,29.77,SW,221,0.0,-999.0,89,-99.99,,,0.00,weatherlink.com 1.10,2013-07-21 09:58:00,
2013-07-21 03:13:00,65.0,62.0,29.75,SW,220,0.0,-999.0,89,-99.99,,,0.00,weatherlink.com 1.10,2013-07-21 10:13:00,
2013-07-21 03:28:00,65.0,62.0,29.76,SW,220,0.0,-999.0,89,-99.99,,,0.00,weatherlink.com 1.10,2013-07-21 10:28:00,
2013-07-21 03:43:00,65.2,62.0,29.75,SW,220,0.0,-999.0,89,-99.99,,,0.00,weatherlink.com 1.10,2013-07-21 10:43:00,
2013-07-21 03:58:00,65.2,62.0,29.76,SW,220,0.0,-999.0,89,-99.99,,,0.00,weatherlink.com 1.10,2013-07-21 10:58:00,
2013-07-21 04:13:00,65.2,62.0,29.76,SW,220,0.0,-999.0,89,-99.99,,,0.00,weatherlink.com 1.10,2013-07-21 11:13:00,
2013-07-21 04:28:00,65.2,62.0,29.75,SW,220,0.0,-999.0,89,-99.99,,,0.00,weatherlink.com 1.10,2013-07-21 11:28:00,
2013-07-21 04:43:00,65.2,62.0,29.75,SW,220,0.0,-999.0,89,-99.99,,,0.00,weatherlink.com 1.10,2013-07-21 11:43:00,
2013-07-21 04:58:00,65.4,62.0,29.74,SW,221,3.0,-999.0,89,-99.99,,,0.00,weatherlink.com 1.10,2013-07-21 11:58:00,
2013-07-21 05:13:00,65.5,62.0,29.74,WSW,250,0.0,-999.0,89,-99.99,,,0.00,weatherlink.com 1.10,2013-07-21 12:13:00,
2013-07-21 05:28:00,65.5,62.0,29.73,SW,225,0.0,-999.0,89,-99.99,,,0.00,weatherlink.com 1.10,2013-07-21 12:28:00,
2013-07-21 05:43:00,65.5,62.0,29.74,SW,225,0.0,-999.0,89,-99.99,,,0.00,weatherlink.com 1.10,2013-07-21 12:43:00,
2013-07-21 05:58:00,65.6,62.0,29.75,SW,225,0.0,-999.0,89,-99.99,,,0.00,weatherlink.com 1.10,2013-07-21 12:58:00,
2013-07-21 06:13:00,65.6,62.0,29.75,SW,225,0.0,-999.0,89,-99.99,,,0.00,weatherlink.com 1.10,2013-07-21 13:13:00,
2013-07-21 06:28:00,65.7,62.0,29.74,SW,225,0.0,-999.0,89,-99.99,,,0.00,weatherlink.com 1.10,2013-07-21 13:28:00,
2013-07-21 06:43:00,65.8,63.0,29.75,SW,225,0.0,-999.0,89,-99.99,,,0.00,weatherlink.com 1.10,2013-07-21 13:43:00,
2013-07-21 06:58:00,66.1,63.0,29.76,SW,225,0.0,-999.0,89,-99.99,,,0.00,weatherlink.com 1.10,2013-07-21 13:58:00,
2013-07-21 07:13:00,66.1,63.0,29.75,SW,225,0.0,-999.0,89,-99.99,,,0.00,weatherlink.com 1.10,2013-07-21 14:13:00,
2013-07-21 07:28:00,66.5,63.0,29.75,SW,225,3.0,-999.0,89,-99.99,,,0.00,weatherlink.com 1.10,2013-07-21 14:28:00,
2013-07-21 07:43:00,67.1,64.0,29.76,SW,225,0.0,-999.0,89,-99.99,,,0.00,weatherlink.com 1.10,2013-07-21 14:43:00,
2013-07-21 07:58:00,67.9,64.0,29.76,SW,225,0.0,-999.0,88,-99.99,,,0.00,weatherlink.com 1.10,2013-07-21 14:58:00,
2013-07-21 08:13:00,69.3,65.0,29.76,SE,136,1.0,-999.0,85,-99.99,,,0.00,weatherlink.com 1.10,2013-07-21 15:13:00,
2013-07-21 08:28:00,69.9,65.0,29.77,SW,235,3.0,-999.0,84,-99.99,,,0.00,weatherlink.com 1.10,2013-07-21 15:28:00,
2013-07-21 08:43:00,70.3,65.0,29.77,SW,224,3.0,-999.0,83,-99.99,,,0.00,weatherlink.com 1.10,2013-07-21 15:43:00,
2013-07-21 08:58:00,70.2,65.0,29.78,SSE,150,0.0,-999.0,82,-99.99,,,0.00,weatherlink.com 1.10,2013-07-21 15:58:00,
2013-07-21 09:13:00,69.9,65.0,29.79,SSE,165,4.0,-999.0,83,-99.99,,,0.00,weatherlink.com 1.10,2013-07-21 16:13:00,
2013-07-21 09:28:00,69.3,64.0,29.79,SW,229,2.0,-999.0,84,-99.99,,,0.00,weatherlink.com 1.10,2013-07-21 16:28:00,
2013-07-21 09:43:00,69.2,64.0,29.80,SSW,200,3.0,-999.0,84,-99.99,,,0.00,weatherlink.com 1.10,2013-07-21 16:43:00,
2013-07-21 09:58:00,69.1,64.0,29.81,SSE,162,2.0,-999.0,84,-99.99,,,0.00,weatherlink.com 1.10,2013-07-21 16:58:00,
2013-07-21 10:13:00,69.0,64.0,29.81,South,188,2.0,-999.0,84,-99.99,,,0.00,weatherlink.com 1.10,2013-07-21 17:13:00,
2013-07-21 10:28:00,69.5,65.0,29.80,SW,236,1.0,-999.0,85,-99.99,,,0.00,weatherlink.com 1.10,2013-07-21 17:28:00,
2013-07-21 10:43:00,70.1,65.0,29.80,SW,216,2.0,-999.0,84,-99.99,,,0.00,weatherlink.com 1.10,2013-07-21 17:43:00,
2013-07-21 10:58:00,70.3,65.0,29.82,SSW,203,2.0,-999.0,83,-99.99,,,0.00,weatherlink.com 1.10,2013-07-21 17:58:00,
2013-07-21 11:13:00,69.6,64.0,29.82,SW,232,3.0,-999.0,83,-99.99,,,0.00,weatherlink.com 1.10,2013-07-21 18:13:00,
2013-07-21 11:28:00,69.4,64.0,29.82,SW,221,5.0,-999.0,84,-99.99,,,0.00,weatherlink.com 1.10,2013-07-21 18:28:00,
2013-07-21 11:43:00,69.3,64.0,29.82,WSW,249,4.0,-999.0,84,-99.99,,,0.00,weatherlink.com 1.10,2013-07-21 18:43:00,
2013-07-21 11:58:00,69.0,64.0,29.83,SW,234,4.0,-999.0,85,-99.99,,,0.00,weatherlink.com 1.10,2013-07-21 18:58:00,
2013-07-21 12:13:00,68.9,64.0,29.83,SW,215,4.0,-999.0,85,-99.99,,,0.00,weatherlink.com 1.10,2013-07-21 19:13:00,
2013-07-21 12:28:00,68.9,64.0,29.82,SW,229,6.0,-999.0,85,-99.99,,,0.00,weatherlink.com 1.10,2013-07-21 19:28:00,
2013-07-21 12:43:00,68.9,64.0,29.82,SSW,210,7.0,-999.0,85,-99.99,,,0.00,weatherlink.com 1.10,2013-07-21 19:43:00,
2013-07-21 12:58:00,69.2,65.0,29.83,SW,215,4.0,-999.0,85,-99.99,,,0.00,weatherlink.com 1.10,2013-07-21 19:58:00,
2013-07-21 13:13:00,69.0,64.0,29.82,SW,225,4.0,-999.0,85,-99.99,,,0.00,weatherlink.com 1.10,2013-07-21 20:13:00,
2013-07-21 13:28:00,69.2,64.0,29.83,West,259,3.0,-999.0,84,-99.99,,,0.00,weatherlink.com 1.10,2013-07-21 20:28:00,
2013-07-21 13:43:00,69.2,64.0,29.82,SSW,194,2.0,-999.0,84,-99.99,,,0.00,weatherlink.com 1.10,2013-07-21 20:43:00,
2013-07-21 13:59:00,69.3,64.0,29.83,South,188,5.0,-999.0,84,-99.99,,,0.00,weatherlink.com 1.10,2013-07-21 20:59:00,
2013-07-21 14:14:00,69.6,64.0,29.83,SSW,205,3.0,-999.0,83,-99.99,,,0.00,weatherlink.com 1.10,2013-07-21 21:14:00,
2013-07-21 14:29:00,69.7,64.0,29.82,WSW,245,3.0,-999.0,83,-99.99,,,0.00,weatherlink.com 1.10,2013-07-21 21:29:00,
2013-07-21 14:43:00,69.7,64.0,29.83,SSW,196,0.0,-999.0,83,-99.99,,,0.00,weatherlink.com 1.10,2013-07-21 21:43:00,
2013-07-21 14:58:00,69.6,64.0,29.82,WSW,250,4.0,-999.0,83,-99.99,,,0.00,weatherlink.com 1.10,2013-07-21 21:58:00,
2013-07-21 15:13:00,69.4,64.0,29.83,SW,222,2.0,-999.0,83,-99.99,,,0.00,weatherlink.com 1.10,2013-07-21 22:13:00,
2013-07-21 15:28:00,68.9,64.0,29.83,SSW,211,0.0,-999.0,83,-99.99,,,0.00,weatherlink.com 1.10,2013-07-21 22:28:00,
2013-07-21 15:44:00,68.8,64.0,29.83,SW,226,1.0,-999.0,84,-99.99,,,0.00,weatherlink.com 1.10,2013-07-21 22:44:00,
2013-07-21 15:59:00,68.7,64.0,29.83,SW,226,3.0,-999.0,84,-99.99,,,0.00,weatherlink.com 1.10,2013-07-21 22:59:00,
2013-07-21 16:14:00,68.7,64.0,29.82,SW,217,3.0,-999.0,84,-99.99,,,0.00,weatherlink.com 1.10,2013-07-21 23:14:00,
2013-07-21 16:29:00,68.4,63.0,29.83,SSW,197,3.0,-999.0,84,-99.99,,,0.00,weatherlink.com 1.10,2013-07-21 23:29:00,
2013-07-21 16:44:00,68.4,63.0,29.82,SSW,199,0.0,-999.0,84,-99.99,,,0.00,weatherlink.com 1.10,2013-07-21 23:44:00,
2013-07-21 16:59:00,68.4,63.0,29.82,SSW,200,4.0,-999.0,84,-99.99,,,0.00,weatherlink.com 1.10,2013-07-21 23:59:00,
2013-07-21 17:14:00,68.3,63.0,29.82,SW,236,6.0,-999.0,84,-99.99,,,0.00,weatherlink.com 1.10,2013-07-22 00:14:00,
2013-07-21 17:29:00,68.0,63.0,29.82,WSW,243,5.0,-999.0,84,-99.99,,,0.00,weatherlink.com 1.10,2013-07-22 00:29:00,
2013-07-21 17:43:00,68.1,63.0,29.82,SSW,209,2.0,-999.0,84,-99.99,,,0.00,weatherlink.com 1.10,2013-07-22 00:43:00,
2013-07-21 17:58:00,68.1,63.0,29.82,SW,230,2.0,-999.0,84,-99.99,,,0.00,weatherlink.com 1.10,2013-07-22 00:58:00,
2013-07-21 18:13:00,67.9,63.0,29.82,SW,221,5.0,-999.0,84,-99.99,,,0.00,weatherlink.com 1.10,2013-07-22 01:13:00,
2013-07-21 18:28:00,67.7,63.0,29.82,West,269,4.0,-999.0,85,-99.99,,,0.00,weatherlink.com 1.10,2013-07-22 01:28:00,
2013-07-21 18:44:00,67.4,63.0,29.83,West,269,0.0,-999.0,85,-99.99,,,0.00,weatherlink.com 1.10,2013-07-22 01:44:00,
2013-07-21 18:59:00,67.4,63.0,29.82,West,269,2.0,-999.0,85,-99.99,,,0.00,weatherlink.com 1.10,2013-07-22 01:59:00,
2013-07-21 19:14:00,67.3,63.0,29.82,SW,232,0.0,-999.0,85,-99.99,,,0.00,weatherlink.com 1.10,2013-07-22 02:14:00,
2013-07-21 19:29:00,67.2,63.0,29.83,SW,232,0.0,-999.0,85,-99.99,,,0.00,weatherlink.com 1.10,2013-07-22 02:29:00,
2013-07-21 19:44:00,67.1,63.0,29.82,SW,232,0.0,-999.0,85,-99.99,,,0.00,weatherlink.com 1.10,2013-07-22 02:44:00,
2013-07-21 19:59:00,66.9,62.0,29.82,SW,232,0.0,-999.0,85,-99.99,,,0.00,weatherlink.com 1.10,2013-07-22 02:59:00,
2013-07-21 20:14:00,66.8,62.0,29.83,SW,232,0.0,-999.0,85,-99.99,,,0.00,weatherlink.com 1.10,2013-07-22 03:14:00,
2013-07-21 20:29:00,66.8,63.0,29.83,SW,232,0.0,-999.0,86,-99.99,,,0.00,weatherlink.com 1.10,2013-07-22 03:29:00,
2013-07-21 20:44:00,66.7,62.0,29.83,SW,232,0.0,-999.0,86,-99.99,,,0.00,weatherlink.com 1.10,2013-07-22 03:44:00,
2013-07-21 20:59:00,66.8,63.0,29.83,SW,232,0.0,-999.0,86,-99.99,,,0.00,weatherlink.com 1.10,2013-07-22 03:59:00,
2013-07-21 21:14:00,66.8,63.0,29.84,SW,232,0.0,-999.0,86,-99.99,,,0.00,weatherlink.com 1.10,2013-07-22 04:14:00,
2013-07-21 21:29:00,66.7,62.0,29.84,SW,232,0.0,-999.0,86,-99.99,,,0.00,weatherlink.com 1.10,2013-07-22 04:29:00,
2013-07-21 21:44:00,66.7,62.0,29.85,SW,232,0.0,-999.0,86,-99.99,,,0.00,weatherlink.com 1.10,2013-07-22 04:44:00,
2013-07-21 21:59:00,66.7,62.0,29.85,SW,232,0.0,-999.0,86,-99.99,,,0.00,weatherlink.com 1.10,2013-07-22 04:59:00,
2013-07-21 22:14:00,66.7,62.0,29.85,SW,232,0.0,-999.0,86,-99.99,,,0.00,weatherlink.com 1.10,2013-07-22 05:14:00,
2013-07-21 22:29:00,66.7,62.0,29.85,SW,232,0.0,-999.0,86,-99.99,,,0.00,weatherlink.com 1.10,2013-07-22 05:29:00,
2013-07-21 22:44:00,66.8,63.0,29.85,SW,232,0.0,-999.0,86,-99.99,,,0.00,weatherlink.com 1.10,2013-07-22 05:44:00,
2013-07-21 22:59:00,66.8,63.0,29.86,SW,232,0.0,-999.0,86,-99.99,,,0.00,weatherlink.com 1.10,2013-07-22 05:59:00,
2013-07-21 23:14:00,66.9,63.0,29.85,SW,232,1.0,-999.0,86,-99.99,,,0.00,weatherlink.com 1.10,2013-07-22 06:14:00,
2013-07-21 23:29:00,66.9,63.0,29.85,SW,232,0.0,-999.0,86,-99.99,,,0.00,weatherlink.com 1.10,2013-07-22 06:29:00,
2013-07-21 23:44:00,66.8,63.0,29.85,SW,232,0.0,-999.0,86,-99.99,,,0.00,weatherlink.com 1.10,2013-07-22 06:44:00,
2013-07-21 23:59:00,66.7,62.0,29.85,SW,232,0.0,-999.0,86,-99.99,,,0.00,weatherlink.com 1.10,2013-07-22 06:59:00,